CST,Max TemperatureF,Mean TemperatureF,Min TemperatureF,Max Dew PointF,MeanDew PointF,Min DewpointF,Max Humidity, Mean Humidity, Min Humidity, Max Sea Level PressureIn, Mean Sea Level PressureIn, Min Sea Level PressureIn, Max VisibilityMiles, Mean VisibilityMiles, Min VisibilityMiles, Max Wind SpeedMPH, Mean Wind SpeedMPH, Max Gust SpeedMPH,PrecipitationIn, CloudCover, Events, WindDirDegrees
2012-11-1,50,42,35,39,32,27,100,70,40,30.03,29.98,29.95,10,9,3,21,11,24,0.00,2,,352
2012-11-2,44,38,32,30,28,25,80,67,53,30.10,30.03,29.99,10,10,10,18,12,21,0.00,2,,86
2012-11-3,48,39,30,32,30,27,93,68,50,30.20,30.16,30.09,10,10,2,9,6,,0.00,5,,9
2012-11-4,51,44,37,41,37,32,100,78,54,30.17,30.10,30.03,10,8,2,14,6,17,0.01,7,Rain,144
2012-11-5,41,40,39,41,40,39,100,98,93,30.15,30.09,29.98,8,3,0,15,7,21,0.05,8,Fog-Rain,84
2012-11-6,50,44,39,39,36,34,100,78,58,30.02,29.93,29.84,10,8,3,30,18,40,0.00,7,,298
2012-11-7,48,39,30,34,32,28,93,74,50,30.14,30.07,30.02,10,10,10,20,9,28,0.00,1,,179
2012-11-8,60,46,33,36,34,32,93,67,36,30.01,29.92,29.87,10,10,10,25,13,31,0.00,0,,180
2012-11-9,57,45,33,46,40,32,100,83,58,29.91,29.83,29.71,10,9,5,21,11,26,0.00,1,,74
2012-11-10,75,60,46,57,52,45,100,74,38,29.70,29.55,29.44,10,8,0,36,18,48,0.18,3,Fog-Rain,187
2012-11-11,44,32,19,43,21,12,100,82,64,30.05,29.87,29.62,10,8,2,26,21,34,0.13,4,Rain,302
2012-11-12,32,24,17,16,15,12,86,70,48,30.32,30.17,30.05,10,10,10,29,18,37,0.00,0,,274
2012-11-13,48,34,19,32,22,12,80,63,34,30.33,30.28,30.21,10,10,10,15,9,20,0.00,2,,187
2012-11-14,51,40,30,32,30,27,93,67,44,30.27,30.21,30.16,10,10,10,16,10,20,0.00,3,,211
2012-11-15,53,40,26,36,30,21,87,67,47,30.44,30.28,30.15,10,10,10,15,11,21,0.00,1,,313
2012-11-16,50,36,23,28,24,16,81,65,40,30.44,30.37,30.28,10,10,10,14,9,,0.00,0,,127
2012-11-17,59,46,33,37,33,30,93,65,36,30.29,30.21,30.15,10,10,6,30,15,36,0.00,3,,172
2012-11-18,59,50,41,37,32,28,66,54,36,30.15,30.09,30.05,10,10,10,22,16,28,0.00,1,,173
2012-11-19,57,48,39,39,37,34,87,68,48,30.10,30.02,29.99,10,10,9,17,12,18,0.00,1,,228
2012-11-20,59,44,28,39,32,27,100,66,31,30.20,30.13,30.07,10,8,3,15,9,,0.00,0,,202
2012-11-21,69,56,42,45,40,34,76,57,35,30.07,29.93,29.76,10,10,10,29,17,36,0.00,0,,203
2012-11-22,55,44,32,45,36,19,87,68,44,30.15,29.86,29.68,10,10,10,37,18,48,0.00,1,,276
2012-11-23,32,22,12,19,12,7,80,64,51,30.40,30.34,30.16,10,10,10,32,22,41,0.00,3,Snow,316
2012-11-24,37,24,12,21,15,9,86,62,41,30.34,30.05,29.81,10,10,10,22,9,26,0.00,3,,182
2012-11-25,37,30,24,27,23,21,93,71,52,30.15,29.98,29.82,10,10,7,15,10,13,0.00,4,,344
2012-11-26,30,21,12,23,10,5,80,63,46,30.41,30.33,30.16,10,10,10,22,10,26,0.00,3,,344
2012-11-27,39,24,8,25,17,5,86,74,52,30.37,30.23,30.09,10,10,9,24,12,32,0.00,0,,240
2012-11-28,44,32,19,27,22,18,100,72,43,30.35,30.22,30.05,10,9,4,18,8,18,0.00,0,,168
2012-11-29,50,37,24,32,29,23,93,74,50,30.05,29.97,29.92,10,10,6,12,6,,0.00,0,,158
2012-11-30,46,35,24,34,29,23,100,85,62,30.08,30.01,29.92,8,6,2,14,7,,0.00,0,,72